Flag for Tuvalu Weather past 2 weeks in Funafuti, Tuvalu

Now
84 °F

Broken clouds.


Feels Like: 94 °F
Forecast: 78 / 87 °F
Wind: 3 mph from North

Location: Funafuti

Current Time: Oct 24, 2014 at 7:37:53 AM

Latest Report: Oct 24, 2014 at 7:00 AM


Visibility: N/A

Pressure: 29.86 "Hg

Humidity: 79%

Dew point: 77 °F

Location of FunafutiLocation

Historic Weather in Funafuti — Graph

°F

Funafuti temperature yesterday

Maximum temperature yesterday: 90 °F (at 1:00 PM)
Minimum temperature yesterday: 81 °F (at 12:00 AM)
Average temperature yesterday: 84 °F

Past Weeks' High & Low Weather Summary

 TemperatureHumidityPressure
High90 °F (Oct 9, 11:00 AM)100% (Oct 19, 6:00 PM)29.89 "Hg (Oct 19, 6:00 PM)
Low77 °F (Oct 19, 6:00 PM)59% (Oct 23, 1:00 PM)29.74 "Hg (Oct 16, 4:00 PM)
Average84 °F80%29.82 "Hg
* Reported Oct 9 7:00 AM — Oct 24 6:00 AM, Funafuti, Weather by CustomWeather, © 2014

Note: Actual official high and low records may vary slightly from our data, if they occured in-between our weather recording intervals... More about our weather records

Advertising

Funafuti weather history for previous 24 hours

 ConditionsComfort  
Time TempWeatherWind HumidityBarometerVisibility
6:00 AM
Oct 24
82 °FPassing clouds.2 mph74%29.83 "HgN/A
5:00 AM82 °FPassing clouds.3 mph84%29.80 "HgN/A
4:00 AM82 °FPassing clouds.2 mph89%29.80 "HgN/A
2:00 AM82 °FPassing clouds.9 mph84%29.80 "HgN/A
1:00 AM82 °FPassing clouds.8 mph84%29.83 "HgN/A
12:00 AM82 °FPassing clouds.6 mph84%29.83 "HgN/A
11:00 PM
Oct 23
82 °FPassing clouds.9 mph84%29.86 "HgN/A
10:00 PM82 °FPassing clouds.6 mph84%29.86 "HgN/A
9:00 PM81 °FScattered showers. Partly cloudy.2 mph89%29.86 "HgN/A
8:00 PM82 °FScattered showers. Partly cloudy.6 mph84%29.83 "HgN/A
7:00 PM84 °FPartly cloudy.8 mph79%29.80 "HgN/A
6:00 PM82 °FScattered showers. Overcast.6 mph89%29.77 "HgN/A
5:00 PM82 °FScattered showers. Cloudy.3 mph89%29.77 "HgN/A
4:00 PM84 °FScattered showers. Broken clouds.No wind79%29.77 "HgN/A
1:00 PM90 °FScattered clouds.5 mph59%29.80 "HgN/A
12:00 PM88 °FBroken clouds.3 mph70%29.80 "HgN/A
11:00 AM88 °FPartly sunny.3 mph70%29.86 "HgN/A
10:00 AM86 °FPartly sunny.3 mph70%29.86 "HgN/A
9:00 AM86 °FBroken clouds.1 mph70%29.86 "HgN/A
8:00 AM84 °FScattered showers. Broken clouds.5 mph74%29.86 "HgN/A
7:00 AM84 °FScattered showers. Broken clouds.5 mph74%29.83 "HgN/A
Weather by CustomWeather, © 2014

See weather overviewHow to use our weather pages